Weather Roundup
Issued by NWS Chicago, IL

Home | Current Version | Previous Version | Text Only | Print | Product List | Glossary Off
Versions: 1 2 3 4 5 6 7 8 9 10 11 12 13 14 15 16 17 18 19 20 21 22 23 24 25 26 27 28 29 30 31 32 33 34 35 36 37 38 39 40 41 42 43 44 45 46 47 48 49 50

000
NZUS59 KLOT 020012
HRRLOT

CHICAGO AREA WEATHER ROUNDUP
NATIONAL WEATHER SERVICE CHICAGO/ROMEOVILLE IL
700 PM CDT WED APR 01 2015

NOTE: "FAIR" INDICATES FEW OR NO CLOUDS BELOW 12,000 FEET WITH NO
SIGNIFICANT WEATHER AND/OR OBSTRUCTIONS TO VISIBILITY.

* THESE STATIONS ARE NOT UNDER NWS QUALITY CONTROL. THEY ALSO MAY NOT
  REPORT WEATHER SUCH AS PRECIPITATION OR FOG.

ILZ005-006-012>014-019>023-020100-
NORTHEAST ILLINOIS

CITY           SKY/WX    TMP DP  RH WIND       PRES   REMARKS
OHARE          MOCLDY    68  37  32 S22G33    29.86S
6HR MIN TEMP:  67; 6HR MAX TEMP:  72;

MIDWAY         MOCLDY    71  37  28 S21G31    29.89S
6HR MIN TEMP:  69; 6HR MAX TEMP:  74;

AURORA         CLEAR     70  36  28 S18G28    29.86S
6HR MIN TEMP:  70; 6HR MAX TEMP:  76;

LANSING*       PTCLDY    65  33  30 S16       29.91F
JOLIET*        CLEAR     70  40  33 S13G22    29.89S
WAUKEGAN       PTCLDY    56  37  49 SE7       29.84F
6HR MIN TEMP:  52; 6HR MAX TEMP:  58;

DUPAGE AIRPORT CLEAR     69  37  30 S21G28    29.86S
6HR MIN TEMP:  69; 6HR MAX TEMP:  74;

WHEELING       PTCLDY    69  36  29 S18G28    29.87S
6HR MIN TEMP:  67; 6HR MAX TEMP:  73;

KANKAKEE*      CLEAR     65  40  39 S12       29.93S
MORRIS*        CLEAR     68  38  32 S20G26    29.88S
LEWIS AIRPORT* CLEAR     66  36  32 S18G28    29.88S
NORTHERLY IS     N/A     68  34  28 S15         N/A
$$

WIZ051-052-058>065-066-070>072-020100-
SOUTHEAST WISCONSIN

CITY           SKY/WX    TMP DP  RH WIND       PRES   REMARKS
MILWAUKEE      MOCLDY    58  35  42 S12       29.83F
6HR MIN TEMP:  50; 6HR MAX TEMP:  62;

KENOSHA*       CLEAR     62  39  42 S10       29.83F
RACINE*        PTCLDY    53  35  50 S15       29.85F
BURLINGTON     PTCLDY    67  36  31 S14G23    29.81F
WAUKESHA       MOCLDY    68  36  30 S14G20    29.81F
WEST BEND      PTCLDY    59  34  38 S8        29.78F
$$

INZ001>003-010>013-019-020-020100-
NORTHWEST INDIANA

CITY           SKY/WX    TMP DP  RH WIND       PRES   REMARKS
GARY*          PTCLDY    70  25  18 S9G21     29.91F
MICHIGAN CITY* NOT AVBL
RENSSELAER*    NOT AVBL
VALPARAISO     PTCLDY    64  37  36 S9        29.94S
$$

LMZ740>746-020100-
SOUTHERN LAKE MICHIGAN

STATION/POSITION TIME  SKY/WX   TEMP WIND        PRES    VSBY
                                AIR  DIR/SP/G
                 (UTC)          (F)  (DEG/KT/KT) (MB)    (MI)
HARRISON CRIB    2300            64  170/ 26/ 28   N/A
BURNHAM HARBOR   0000            68  170/ 15/ 18   N/A
CALUMET HARBOR   2300            69  170/ 12/ 19 1011.3F
BURNS HARBOR     2300            68  180/ 16/ 22 1013.5F
MICHIGAN CITY    2300            68  150/ 16/ 20   N/A
$$

ABBREVIATIONS USED IN REMARKS
   TC - TEMPERATURE IN CELSIUS
  WCI - WIND CHILL INDEX
   HX - HEAT INDEX
  VSB - VISIBILITY
$$



USA.gov is the U.S. government's official web portal to all federal, state and local government web resources and services.